Tracking 20092 objects as of 14-Dec-2019
HD Live streaming from Space Station
objects crossing your sky now

FENGYUN 1C DEB

Track FENGYUN 1C DEB now!
10-day predictions


NORAD ID: 30484
Int'l Code: 1999-025AGW
Perigee: 607.3 km
Apogee: 697.5 km
Inclination: 99.0 °
Period: 97.6 minutes
Semi major axis: 7023 km
RCS: 0.019 m2 (small)
Launch date: May 10, 1999
Source: People's Republic of China (PRC)
Launch site: Taiyaun Space Center, China (TSC)

Note: This is SATELLITE DEBRIS
aabbcc
Your satellite tracking list
Your tracking list is empty




NASA's NSSDC Master Catalog

Two Line Element Set (TLE):
1 30484U 99025AGW 19347.57510393 +.00002009 +00000-0 +29862-3 0  9992
2 30484 099.0186 029.3994 0064154 187.2567 172.7716 14.74963767683042
Source of the keplerian elements: AFSPC